Oceana NAS, VA

4:22 PM EDT on May 24, 2017 (GMT -0400)
Oceana Naval Air Station

Weather History for KNTU - November, 2012

Change the Weather History Date:

Sunday, November 18, 2012

  Actual Average Record
Temperature  
Mean Temperature 56 °F -  
Max Temperature 59 °F 57 °F 73 °F (2013)
Min Temperature 53 °F 39 °F 27 °F (1997)
Degree Days  
Heating Degree Days 9    
Growing Degree Days 6 (Base 50)    
Moisture  
Dew Point 48 °F    
Average Humidity 81    
Maximum Humidity 86    
Minimum Humidity 69    
Precipitation  
Precipitation 0.00 in - - ()
Sea Level Pressure  
Sea Level Pressure 30.41 in    
Wind  
Wind Speed 19 mph (NNE)    
Max Wind Speed 25 mph    
Max Gust Speed 34 mph    
Visibility 10 miles    
Events Rain    
Averages and records for this station are not official NWS values.
T = Trace of Precipitation, MM = Missing Value Source: NWS Daily Summary

Daily Weather History Graph

Daily Weather History Graph

Search for Another Location

Airport or City:

Trip Planner

Search our weather history database for the weather conditions in past years. The results will help you decide how hot, cold, wet, or windy it might be!

Date:

Astronomy

Nov. 18, 2012 Rise Set
Actual Time 6:45 AM EST 4:52 PM EST
Civil Twilight 6:18 AM EST 5:20 PM EST
Nautical Twilight 5:46 AM EST 5:51 PM EST
Astronomical Twilight 5:15 AM EST 6:22 PM EST
Moon 11:12 AM EST (11/18) 10:07 PM EST (11/18)
Length of Visible Light 11h 02m
Length of Day
10h 06m
Waxing Crescent, 30% of the Moon is Illuminated
Nov 18
Waxing Crescent
Nov 20
First Quarter
Nov 28
Full
Dec 6
Last Quarter
Dec 13
New

Hourly Weather History & Observations

Time (EST) Temp. Dew Point Humidity Pressure Visibility Wind Dir Wind Speed Gust Speed Precip Events Conditions
12:56 AM 53.1 °F 48.9 °F 86% 30.45 in 9.0 mi NNE 15.0 mph 28.8 mph N/A   Mostly Cloudy
1:16 AM 53.6 °F 48.2 °F 82% 30.43 in 9.0 mi NE 18.4 mph 26.5 mph N/A   Scattered Clouds
1:56 AM 53.1 °F 48.9 °F 86% 30.45 in 10.0 mi NE 17.3 mph 25.3 mph N/A   Mostly Cloudy
2:39 AM 53.6 °F 48.2 °F 82% 30.43 in 9.0 mi NE 19.6 mph 24.2 mph N/A   Mostly Cloudy
2:56 AM 53.1 °F 48.9 °F 86% 30.44 in 9.0 mi NE 19.6 mph - N/A   Mostly Cloudy
3:18 AM 53.6 °F 48.2 °F 82% 30.43 in 10.0 mi NE 17.3 mph 25.3 mph N/A   Mostly Cloudy
3:56 AM 53.1 °F 48.9 °F 86% 30.43 in 10.0 mi NE 17.3 mph 25.3 mph N/A   Mostly Cloudy
4:56 AM 53.1 °F 48.0 °F 83% 30.43 in 10.0 mi NE 18.4 mph 25.3 mph N/A   Mostly Cloudy
5:56 AM 53.1 °F 48.0 °F 83% 30.44 in 10.0 mi NE 17.3 mph 29.9 mph N/A   Mostly Cloudy
6:56 AM 54.0 °F 48.0 °F 80% 30.45 in 10.0 mi NE 20.7 mph 26.5 mph N/A   Scattered Clouds
7:56 AM 54.0 °F 48.0 °F 80% 30.45 in 10.0 mi NE 17.3 mph 24.2 mph N/A   Mostly Cloudy
8:56 AM 55.9 °F 48.9 °F 77% 30.45 in 10.0 mi NE 18.4 mph 26.5 mph N/A   Overcast
9:56 AM 57.0 °F 48.9 °F 74% 30.45 in 10.0 mi NE 21.9 mph 28.8 mph N/A   Mostly Cloudy
10:56 AM 59.0 °F 48.9 °F 69% 30.45 in 10.0 mi NE 18.4 mph 28.8 mph N/A   Mostly Cloudy
11:56 AM 57.9 °F 48.9 °F 72% 30.42 in 10.0 mi NE 25.3 mph 34.5 mph N/A   Overcast
12:56 PM 55.9 °F 48.0 °F 75% 30.41 in 10.0 mi NE 20.7 mph 34.5 mph N/A   Overcast
1:56 PM 55.9 °F 48.0 °F 75% 30.40 in 10.0 mi NNE 21.9 mph 29.9 mph 0.00 in Rain Light Rain
2:07 PM 55.4 °F 48.2 °F 77% 30.39 in 10.0 mi NE 24.2 mph 31.1 mph 0.00 in   Overcast
2:56 PM 54.0 °F 48.0 °F 80% 30.39 in 10.0 mi NE 21.9 mph 31.1 mph 0.00 in   Overcast
3:56 PM 54.0 °F 48.0 °F 80% 30.38 in 10.0 mi NNE 20.7 mph 27.6 mph N/A   Overcast
4:56 PM 54.0 °F 48.9 °F 83% 30.38 in 10.0 mi NNE 20.7 mph 26.5 mph N/A   Overcast
5:56 PM 54.0 °F 48.9 °F 83% 30.38 in 10.0 mi NNE 21.9 mph 27.6 mph N/A   Overcast
6:56 PM 54.0 °F 48.9 °F 83% 30.39 in 10.0 mi NNE 19.6 mph 33.4 mph N/A   Overcast
7:56 PM 54.0 °F 48.0 °F 80% 30.38 in 10.0 mi NNE 18.4 mph 32.2 mph N/A   Overcast
8:56 PM 54.0 °F 48.9 °F 83% 30.38 in 10.0 mi NNE 21.9 mph 31.1 mph N/A   Overcast
9:56 PM 54.0 °F 48.9 °F 83% 30.37 in 10.0 mi NNE 19.6 mph 29.9 mph N/A   Overcast
10:48 PM 53.6 °F 48.2 °F 82% 30.35 in 9.0 mi North 18.4 mph 31.1 mph 0.00 in Rain Light Rain
10:56 PM 53.1 °F 48.0 °F 83% 30.35 in 10.0 mi North 18.4 mph 25.3 mph 0.00 in Rain Light Rain
11:12 PM 53.6 °F 48.2 °F 82% 30.35 in 10.0 mi North 16.1 mph 28.8 mph 0.00 in Rain Light Rain
11:28 PM 53.6 °F 48.2 °F 82% 30.33 in 10.0 mi North 17.3 mph 25.3 mph 0.00 in   Overcast
11:56 PM 53.1 °F 48.0 °F 83% 30.33 in 9.0 mi NNE 18.4 mph 28.8 mph 0.00 in   Overcast